Regional Weather Roundup
Issued by NWS Kansas City/Pleasant Hill, MO

Home | Current Version | Previous Version | Text Only | Print | Product List | Glossary On
Versions: 1 2 3 4 5 6 7 8 9 10 11 12 13 14 15 16 17 18 19 20 21 22 23 24 25 26 27 28 29 30 31 32 33 34 35 36 37 38 39 40 41 42 43 44 45 46 47 48 49 50
000
ASUS43 KEAX 240911
RWREAX

WEATHER ROUNDUP FOR EASTERN KANSAS AND NORTHWEST MISSOURI
NATIONAL WEATHER SERVICE KANSAS CITY/PLEASANT HILL MO
400 AM CDT THU JUL 24 2014

KSZ040-057-103>105-MOZ028-029-037-043-241000-
...KANSAS CITY METROPOLITAN AREA...

CITY           SKY/WX    TMP DP  RH WIND       PRES   REMARKS
K.C. INTL      PTCLDY    68  59  73 E8        30.12F
K.C. DOWNTOWN  CLEAR     69  61  75 E5        30.11S
LEES SUMMIT    CLEAR     66  61  84 E6        30.12F
OLATHE - IXD   CLEAR     68  61  78 E6        30.12S
OLATHE - OJC   CLEAR     67  61  81 E6        30.11S
LAWRENCE       CLEAR     67  61  81 E6        30.11F

$$

MOZ001>008-011>017-020>025-030>033-038>040-044>046-053-054-241000-
...NORTHERN AND CENTRAL MISSOURI...

CITY           SKY/WX    TMP DP  RH WIND       PRES   REMARKS
ST. JOSEPH     CLEAR     68  60  75 VRB5      30.13F
MOSBY          SUNNY     63  61  94 CALM      30.12S
WARRENSBURG    CLEAR     63  59  88 NE3       30.11S
WHITEMAN AFB   CLEAR     62  58  86 NE3       30.11S
CLINTON        CLEAR     66  63  88 NE3       30.11S
SEDALIA        CLEAR     65  60  84 NE3       30.12S
WARSAW         NOT AVBL
MARSHALL       CLEAR     66  61  82 NE3       30.13S
CHILLICOTHE      N/A     61  58  90 CALM      30.15F
MOBERLY        CLEAR     59  55  88 N3        30.14S
KIRKSVILLE     CLEAR     58  56  93 CALM      30.15S

$$

MOZ041-047>049-056>058-063>065-088>090-097-241000-
...EASTERN AND SOUTHERN MISSOURI...

CITY           SKY/WX    TMP DP  RH WIND       PRES   REMARKS
ST. LOUIS INTL CLEAR     65  52  62 NE6       30.10S
SPIRIT OF STL  CLEAR     58  55  90 CALM      30.10R
COLUMBIA       CLEAR     61  57  87 NE7       30.12S
JEFFERSON CITY CLEAR     64  59  83 CALM      30.10S
MEXICO         CLEAR    N/A N/A N/A N3        30.12S
HANNIBAL       CLEAR     61  57  88 CALM      30.13S
ROLLA          CLEAR     62  58  86 NE5       30.09S
OSAGE BEACH    CLEAR     64  59  82 NE3       30.10S
SPRINGFIELD    CLEAR     69  65  86 E6        30.08S
BRANSON        MOCLDY    68  68 100 CALM      30.08S
NEVADA         CLEAR     64  63  94 E6        30.10S
JOPLIN         CLEAR     68  65  90 NE7       30.07S
WEST PLAINS    CLEAR     67  61  81 NE8       30.09S
MALDEN         PTCLDY    68  61  77 N7        30.04S

$$

IAZ060-094-KSZ022-034>040-054-083-096-NEZ052-066-093-241000-
...KANSAS...SOUTHEAST NEBRASKA AND IOWA...

CITY           SKY/WX    TMP DP  RH WIND       PRES   REMARKS
TOPEKA         CLEAR     69  63  81 E3        30.11F
MANHATTAN      CLEAR     66  63  90 CALM      30.10F
EMPORIA        PTCLDY    67  64  90 E3        30.11S
CHANUTE        CLEAR     70  64  81 NE8       30.08F
WICHITA        CLEAR     71  65  81 E7        30.09F
OMAHA          CLEAR     69  59  70 SE6       30.14F
LINCOLN        CLEAR     71  61  70 SE9       30.13F
FALLS CITY     CLEAR     64  61  90 E5        30.12F
LAMONI         CLEAR     62  59  90 N5        30.15F
DES MOINES     CLEAR     65  60  84 CALM      30.15F

$$




USA.gov is the U.S. government's official web portal to all federal, state and local government web resources and services.